Flag for U.S.A. Weather past 2 weeks in Toledo, Ohio, U.S.A.

Now
32 °F

Overcast.


Feels Like: 32 °F
Forecast: 25 / 33 °F
Wind: No wind

Location: Toledo Suburban Airport

Current Time: Dec 20, 2014 at 8:13:52 AM

Latest Report: Dec 20, 2014 at 7:35 AM


Visibility: 10 mi

Pressure: 30.29 "Hg

Humidity: 69%

Dew point: 23 °F

Location of ToledoLocation

Historic Weather in Toledo — Graph

°F

Toledo temperature yesterday

Maximum temperature yesterday: 32 °F (at 12:15 AM)
Minimum temperature yesterday: 30 °F (at 9:15 AM)
Average temperature yesterday: 32 °F

Past Weeks' High & Low Weather Summary

 TemperatureHumidityPressure
High54 °F (Dec 14, 2:55 PM)93% (Dec 9, 12:55 AM)30.68 "Hg (Dec 9, 12:55 AM)
Low21 °F (Dec 11, 5:15 AM)36% (Dec 11, 1:54 PM)29.66 "Hg (Dec 16, 8:15 AM)
Average36 °F78%30.18 "Hg
* Reported Dec 5 7:15 AM — Dec 20 7:15 AM, Toledo, Weather by CustomWeather, © 2014

Note: Actual official high and low records may vary slightly from our data, if they occured in-between our weather recording intervals... More about our weather records

Advertising

Toledo weather history for previous 24 hours

 ConditionsComfort  
Time TempWeatherWind HumidityBarometerVisibility
7:15 AM
Dec 20
32 °FOvercast.No wind64%30.29 "Hg10 mi
6:54 AM32 °FOvercast.No wind69%30.29 "Hg10 mi
6:35 AM32 °FOvercast.No wind64%30.29 "Hg10 mi
6:15 AM32 °FOvercast.No wind64%30.29 "Hg10 mi
5:54 AM32 °FOvercast.No wind69%30.29 "Hg10 mi
5:34 AM32 °FOvercast.No wind69%30.29 "Hg10 mi
5:15 AM32 °FOvercast.No wind69%30.29 "Hg10 mi
4:55 AM32 °FOvercast.No wind69%30.29 "Hg10 mi
4:34 AM32 °FOvercast.No wind69%30.29 "Hg10 mi
4:15 AM32 °FOvercast.No wind69%30.29 "Hg10 mi
3:54 AM32 °FOvercast.No wind69%30.29 "Hg10 mi
3:35 AM32 °FOvercast.No wind69%30.30 "Hg10 mi
3:15 AM32 °FOvercast.No wind69%30.29 "Hg10 mi
2:54 AM32 °FOvercast.No wind69%30.28 "Hg10 mi
2:35 AM32 °FOvercast.No wind69%30.28 "Hg10 mi
2:15 AM32 °FOvercast.3 mph69%30.28 "Hg10 mi
1:54 AM32 °FOvercast.3 mph75%30.28 "Hg10 mi
1:34 AM32 °FOvercast.No wind75%30.27 "Hg10 mi
1:15 AM32 °FOvercast.No wind80%30.27 "Hg10 mi
12:55 AM32 °FOvercast.No wind80%30.28 "Hg10 mi
12:34 AM32 °FOvercast.No wind80%30.27 "Hg10 mi
12:15 AM32 °FOvercast.No wind80%30.28 "Hg10 mi
11:54 PM
Dec 19
32 °FOvercast.No wind80%30.28 "Hg10 mi
11:35 PM32 °FOvercast.No wind80%30.28 "Hg10 mi
11:15 PM32 °FOvercast.No wind80%30.28 "Hg10 mi
10:54 PM32 °FOvercast.No wind80%30.28 "Hg10 mi
10:35 PM32 °FOvercast.No wind80%30.28 "Hg10 mi
9:54 PM32 °FMostly cloudy.No wind80%30.28 "Hg10 mi
9:34 PM32 °FOvercast.No wind80%30.28 "Hg10 mi
9:15 PM32 °FOvercast.No wind80%30.28 "Hg10 mi
8:55 PM32 °FMostly cloudy.No wind80%30.29 "Hg10 mi
8:34 PM32 °FMostly cloudy.No wind80%30.29 "Hg10 mi
8:15 PM32 °FOvercast.No wind80%30.30 "Hg10 mi
7:54 PM32 °FOvercast.No wind80%30.32 "Hg10 mi
7:35 PM32 °FMostly cloudy.No wind80%30.33 "Hg10 mi
7:15 PM32 °FOvercast.5 mph80%30.33 "Hg10 mi
6:54 PM32 °FOvercast.No wind80%30.32 "Hg10 mi
6:35 PM32 °FOvercast.No wind80%30.32 "Hg10 mi
6:15 PM32 °FOvercast.No wind80%30.31 "Hg10 mi
5:55 PM32 °FOvercast.No wind75%30.29 "Hg10 mi
5:34 PM32 °FOvercast.No wind75%30.29 "Hg10 mi
5:15 PM32 °FOvercast.No wind75%30.28 "Hg10 mi
4:54 PM32 °FOvercast.No wind80%30.28 "Hg10 mi
4:35 PM32 °FOvercast.No wind80%30.27 "Hg10 mi
4:15 PM32 °FOvercast.No wind80%30.27 "Hg10 mi
3:54 PM32 °FOvercast.No wind75%30.27 "Hg10 mi
3:35 PM32 °FOvercast.No wind75%30.27 "Hg10 mi
3:15 PM32 °FOvercast.No wind75%30.26 "Hg10 mi
2:54 PM32 °FOvercast.No wind75%30.25 "Hg10 mi
2:34 PM32 °FOvercast.No wind75%30.25 "Hg10 mi
2:15 PM32 °FOvercast.No wind75%30.24 "Hg10 mi
1:55 PM32 °FOvercast.No wind75%30.25 "Hg10 mi
1:34 PM32 °FOvercast.No wind75%30.26 "Hg10 mi
1:15 PM32 °FOvercast.No wind75%30.26 "Hg10 mi
12:54 PM32 °FOvercast.No wind80%30.26 "Hg10 mi
12:35 PM32 °FMostly cloudy.No wind80%30.26 "Hg10 mi
12:15 PM32 °FMore clouds than sun.No wind80%30.27 "Hg10 mi
11:54 AM32 °FMostly cloudy.No wind80%30.28 "Hg10 mi
11:35 AM32 °FMore clouds than sun.No wind80%30.28 "Hg10 mi
11:15 AM32 °FMostly cloudy.No wind80%30.28 "Hg10 mi
10:54 AM32 °FLow clouds.3 mph80%30.28 "Hg10 mi
10:34 AM32 °FLow clouds.6 mph80%30.27 "Hg10 mi
10:15 AM30 °FMore clouds than sun.5 mph86%30.27 "Hg10 mi
9:55 AM30 °FOvercast.5 mph86%30.27 "Hg10 mi
9:34 AM30 °FMore clouds than sun.5 mph86%30.27 "Hg10 mi
9:15 AM30 °FMostly cloudy.6 mph86%30.27 "Hg10 mi
8:55 AM32 °FLow clouds.7 mph80%30.27 "Hg10 mi
8:34 AM32 °FMostly cloudy.3 mph87%30.26 "Hg7 mi
8:15 AM32 °FMostly cloudy.No wind87%30.25 "Hg5 mi
Weather by CustomWeather, © 2014

See weather overviewHow to use our weather pages